User: anonymous   Login
Location: Brno
(49.2000°N, 16.6330°E)
Time: 17:02:06
(UTC+01:00)
Language:

ISS - Orbit

View from above orbital plane
View from above orbital plane
View from above satellite
View from above satellite

Ground track
Ground track

The orbit data is extracted from the following two-line orbital elements,

1 25544U 98067A   17084.50269086  .00016717  00000-0  10270-3 0  9036
2 25544  51.6398  95.4462 0007358 336.5750  23.5067 15.54294438  8732
Epoch (UTC): 25 March 2017 12:03:52
Eccentricity: 0.0007358
inclination: 51.6398°
perigee height: 399 km
apogee height: 409 km
right ascension of ascending node: 95.4462°
argument of perigee: 336.5750°
revolutions per day: 15.54294438
mean anomaly at epoch: 23.5067°
orbit number at epoch: 873

The dashed part of the orbit path shows where the satellite is in the earth's shadow,  

DLR